Weather History for KBPC - February, 2013

Change the Weather History Date:

Thursday, February 21, 2013

  Actual Average Record
Temperature  
Mean Temperature 23 °F -  
Max Temperature 32 °F - - ()
Min Temperature 14 °F - - ()
Degree Days  
Heating Degree Days 42    
Moisture  
Dew Point 25 °F    
Average Humidity 92    
Maximum Humidity 100    
Minimum Humidity 74    
Precipitation  
Precipitation 0.26 in - - ()
Sea Level Pressure  
Sea Level Pressure 29.75 in    
Wind  
Wind Speed 10 mph (North)    
Max Wind Speed 18 mph    
Max Gust Speed 26 mph    
Visibility 7 miles    
Events Rain , Snow    
Averages and records for this station are not official NWS values.
T = Trace of Precipitation, MM = Missing Value Source: NWS Daily Summary

Daily Weather History Graph

Daily Weather History Graph

Search for Another Location

Airport or City:

Trip Planner

Search our weather history database for the weather conditions in past years. The results will help you decide how hot, cold, wet, or windy it might be!

Date:

Astronomy

Feb. 21, 2013 Rise Set
Actual Time 7:23 AM CST 6:31 PM CST
Civil Twilight 6:58 AM CST 6:57 PM CST
Nautical Twilight 6:28 AM CST 7:27 PM CST
Astronomical Twilight 5:58 AM CST 7:57 PM CST
Moon 2:53 PM CST (2/21) 4:24 AM CST (2/21)
Length of Visible Light 11h 59m
Length of Day
11h 07m
Waxing Gibbous, 84% of the Moon is Illuminated
Feb 21
Waxing Gibbous
Feb 25
Full
Mar 4
Last Quarter
Mar 11
New
Mar 19
First Quarter

Hourly Weather History & Observations

Time (CST) Temp. Windchill Dew Point Humidity Pressure Visibility Wind Dir Wind Speed Gust Speed Precip Events Conditions
12:15 AM 32.0 °F 25.6 °F 32.0 °F 100% 29.73 in 5.0 mi ENE 6.9 mph - N/A Rain Light Rain
12:35 AM 32.0 °F 24.2 °F 32.0 °F 100% 29.72 in 5.0 mi East 9.2 mph - 0.01 in Rain Light Rain
12:55 AM 32.0 °F 21.6 °F 32.0 °F 100% 29.71 in 10.0 mi East 15.0 mph - 0.01 in Rain Rain
1:15 AM 32.0 °F 22.1 °F 32.0 °F 100% 29.70 in 2.0 mi East 13.8 mph 23.0 mph 0.02 in Snow Light Snow
1:35 AM 32.0 °F 24.2 °F 32.0 °F 100% 29.72 in 2.5 mi East 9.2 mph 20.7 mph 0.07 in Snow Light Snow
1:55 AM 32.0 °F 24.8 °F 32.0 °F 100% 29.72 in 1.0 mi East 8.1 mph - 0.10 in Snow Snow
2:15 AM 32.0 °F 24.8 °F 32.0 °F 100% 29.72 in 1.0 mi ESE 8.1 mph - 0.03 in Snow Snow
2:35 AM 32.0 °F 23.0 °F 32.0 °F 100% 29.70 in 0.8 mi ESE 11.5 mph - 0.06 in Snow Snow
3:15 AM 32.0 °F 25.6 °F 32.0 °F 100% 29.69 in 2.0 mi East 6.9 mph - 0.02 in Snow Light Snow
3:35 AM 32.0 °F 24.2 °F 32.0 °F 100% 29.68 in 1.5 mi East 9.2 mph - 0.03 in Snow Light Snow
3:55 AM 32.0 °F 24.2 °F 32.0 °F 100% 29.66 in 5.0 mi East 9.2 mph - 0.03 in Snow Light Snow
4:15 AM 32.0 °F 21.2 °F 32.0 °F 100% 29.61 in 7.0 mi East 16.1 mph 25.3 mph N/A Snow Light Snow
4:35 AM 32.0 °F 24.2 °F 32.0 °F 100% 29.66 in 10.0 mi ESE 9.2 mph - N/A   Overcast
4:55 AM 32.0 °F 22.1 °F 30.2 °F 93% 29.63 in 4.0 mi East 13.8 mph 20.7 mph N/A Snow Light Snow
5:15 AM 32.0 °F 22.1 °F 30.2 °F 93% 29.63 in 7.0 mi East 13.8 mph - N/A Snow Light Snow
5:35 AM 32.0 °F 20.8 °F 30.2 °F 93% 29.62 in 10.0 mi East 17.3 mph 20.7 mph N/A   Overcast
5:55 AM 30.2 °F 19.8 °F 30.2 °F 100% 29.59 in 10.0 mi East 13.8 mph - N/A   Overcast
6:15 AM 30.2 °F 18.5 °F 30.2 °F 100% 29.58 in 10.0 mi East 17.3 mph 24.2 mph N/A   Overcast
6:35 AM 30.2 °F 19.8 °F 30.2 °F 100% 29.55 in 10.0 mi East 13.8 mph 26.5 mph N/A   Overcast
6:55 AM 32.0 °F 27.5 °F 30.2 °F 93% 29.57 in 10.0 mi NNE 4.6 mph - N/A   Overcast
7:15 AM 30.2 °F 21.9 °F 30.2 °F 100% 29.56 in 10.0 mi ENE 9.2 mph - N/A   Overcast
7:35 AM 30.2 °F 25.4 °F 30.2 °F 100% 29.56 in 10.0 mi NE 4.6 mph - N/A   Overcast
8:15 AM 32.0 °F 23.6 °F 30.2 °F 93% 29.64 in 4.0 mi South 10.4 mph - N/A Snow Light Snow
8:35 AM 32.0 °F 27.5 °F 32.0 °F 100% 29.63 in 0.5 mi South 4.6 mph - 0.01 in Snow Snow
9:15 AM 32.0 °F 28.7 °F 32.0 °F 100% 29.65 in 0.8 mi West 3.5 mph - 0.01 in Snow Light Snow
9:35 AM 32.0 °F 27.5 °F 32.0 °F 100% 29.64 in 0.5 mi NW 4.6 mph - 0.03 in Snow Snow
9:55 AM 32.0 °F 27.5 °F 32.0 °F 100% 29.65 in 0.5 mi NNW 4.6 mph - 0.05 in Snow Snow
10:15 AM 32.0 °F - 32.0 °F 100% 29.64 in 1.2 mi Calm Calm - N/A Snow Light Snow
10:35 AM 32.0 °F 28.7 °F 32.0 °F 100% 29.64 in 2.0 mi NNE 3.5 mph - N/A Snow Light Snow
10:55 AM 32.0 °F 28.7 °F 32.0 °F 100% 29.65 in 4.0 mi NNE 3.5 mph - N/A   Overcast
11:15 AM 32.0 °F 28.7 °F 32.0 °F 100% 29.65 in 5.0 mi North 3.5 mph - N/A   Overcast
11:35 AM 32.0 °F 27.5 °F 32.0 °F 100% 29.66 in 5.0 mi North 4.6 mph - N/A   Overcast
11:55 AM 32.0 °F 25.6 °F 32.0 °F 100% 29.67 in 7.0 mi North 6.9 mph - N/A   Overcast
12:35 PM 28.4 °F 17.5 °F 26.6 °F 93% 29.69 in 1.0 mi NNE 13.8 mph - N/A Snow Light Snow
12:55 PM 28.4 °F 16.6 °F 26.6 °F 93% 29.71 in 4.0 mi North 16.1 mph - N/A Snow Light Snow
1:35 PM 28.4 °F 17.0 °F 24.8 °F 86% 29.73 in 7.0 mi North 15.0 mph 25.3 mph N/A Snow Light Snow
1:55 PM 26.6 °F 14.3 °F 23.0 °F 86% 29.73 in 2.5 mi North 16.1 mph 21.9 mph N/A Snow Light Snow
2:15 PM 26.6 °F 13.4 °F 21.2 °F 80% 29.73 in 10.0 mi North 18.4 mph - N/A   Overcast
2:35 PM 28.4 °F 16.2 °F 21.2 °F 74% 29.74 in 10.0 mi NNW 17.3 mph 20.7 mph N/A   Mostly Cloudy
2:55 PM 28.4 °F 16.6 °F 21.2 °F 74% 29.76 in 10.0 mi NNW 16.1 mph - N/A   Mostly Cloudy
3:15 PM 26.6 °F 14.3 °F 21.2 °F 80% 29.77 in 10.0 mi NNW 16.1 mph - N/A   Scattered Clouds
3:55 PM 26.6 °F 14.3 °F 21.2 °F 80% 29.80 in 10.0 mi NNW 16.1 mph - N/A   Overcast
4:15 PM 26.6 °F 13.8 °F 21.2 °F 80% 29.80 in 10.0 mi NNW 17.3 mph 21.9 mph N/A   Overcast
4:35 PM 26.6 °F 15.2 °F 21.2 °F 80% 29.81 in 10.0 mi NNW 13.8 mph - N/A   Overcast
4:55 PM 26.6 °F 15.2 °F 21.2 °F 80% 29.82 in 10.0 mi NNW 13.8 mph 23.0 mph N/A   Overcast
5:15 PM 26.6 °F 15.2 °F 19.4 °F 74% 29.82 in 10.0 mi NNW 13.8 mph 18.4 mph N/A   Mostly Cloudy
5:35 PM 26.6 °F 15.2 °F 19.4 °F 74% 29.83 in 10.0 mi NNW 13.8 mph - N/A   Scattered Clouds
5:55 PM 24.8 °F 14.6 °F 19.4 °F 80% 29.85 in 10.0 mi NNW 10.4 mph 16.1 mph N/A   Scattered Clouds
6:15 PM 24.8 °F 15.3 °F 19.4 °F 80% 29.87 in 10.0 mi NNW 9.2 mph - N/A   Scattered Clouds
6:35 PM 23.0 °F 13.9 °F 19.4 °F 86% 29.86 in 10.0 mi NNW 8.1 mph - N/A   Scattered Clouds
6:55 PM 21.2 °F 14.9 °F 17.6 °F 86% 29.87 in 10.0 mi North 4.6 mph - N/A   Clear
7:15 PM 21.2 °F 14.9 °F 17.6 °F 86% 29.88 in 10.0 mi NNW 4.6 mph - N/A   Clear
7:35 PM 19.4 °F 10.4 °F 17.6 °F 93% 29.88 in 10.0 mi NNW 6.9 mph - N/A   Clear
7:55 PM 21.2 °F 11.7 °F 17.6 °F 86% 29.90 in 10.0 mi NW 8.1 mph - N/A   Clear
8:15 PM 17.6 °F 9.3 °F 15.8 °F 93% 29.91 in 10.0 mi West 5.8 mph - N/A   Clear
8:35 PM 17.6 °F 10.7 °F 14.0 °F 86% 29.92 in 10.0 mi WSW 4.6 mph - N/A   Clear
8:55 PM 15.8 °F 6.1 °F 14.0 °F 93% 29.92 in 10.0 mi WNW 6.9 mph - N/A   Clear
9:15 PM 15.8 °F 7.2 °F 14.0 °F 93% 29.94 in 10.0 mi WSW 5.8 mph - N/A   Clear
9:35 PM 15.8 °F 7.2 °F 14.0 °F 93% 29.93 in 10.0 mi West 5.8 mph - N/A   Clear
9:55 PM 14.0 °F 3.9 °F 12.2 °F 93% 29.93 in 10.0 mi West 6.9 mph - N/A   Clear
10:15 PM 15.8 °F 4.2 °F 14.0 °F 93% 29.94 in 10.0 mi WNW 9.2 mph - N/A   Clear
10:35 PM 17.6 °F 10.7 °F 14.0 °F 86% 29.96 in 10.0 mi West 4.6 mph - N/A   Clear
10:55 PM 14.0 °F 3.9 °F 12.2 °F 93% 29.97 in 10.0 mi SSW 6.9 mph - N/A   Clear
11:15 PM 14.0 °F 5.1 °F 12.2 °F 93% 29.96 in 10.0 mi NW 5.8 mph - N/A   Mostly Cloudy
11:35 PM 19.4 °F 12.8 °F 15.8 °F 86% 29.97 in 10.0 mi NW 4.6 mph - N/A   Overcast
11:55 PM 19.4 °F 14.3 °F 15.8 °F 86% 29.97 in 10.0 mi WSW 3.5 mph - N/A   Overcast